Content
SEND FEEDBACK

Daily
Averages
Monthly
Summary
United Kingdom

LONDON, ENGLAND


Home > Europe > United Kingdom > England
Elevation: 203 feet     Latitude: 51 09N     Longitude: 000 11W

WEATHER
 
SELECT A DAY
Number of Records: 292,925;   Date Range: 7/1/96 - 7/28/14
 
SHARE

PRINT THIS DATA

[ ← Previous Day ]
WEATHER ALMANAC - MARCH 23, 2013
[ Next Day → ]
[ °C ]   °F
Weather ElementAverageHighLow
Temperature34.9 °F37.4 °F (12:50 am)33.8 °F (6:20 am)
Dewpoint32.4 °F33.8 °F (12:50 am)32 °F (5:50 am)
Humidity90.6 %93 % (3:20 am)87 % (12:50 am)
Barometer29.79 in29.83 in (5:50 pm)29.71 in (2:50 am)
Wind Speed13.5 mph17.3 mph (10:50 am)
Weather ElementAverage
Visibility1.7 mi
Wind DirectionENE (66.2 °)

Weather ElementTotal
Precipitation---
Heating Degree Days29.4 (Base 65)
Averaged from 47 records on March 23, 2013
WEATHER CONDITIONS BREAKOUT
WIND DIRECTION BREAKOUT
WEATHER BY HOUR - MARCH 23, 2013
[ °C ]   °F
Local TimeTemperatureDewpointHumidityBarometerVisibilityWind DirectionWind SpeedGust SpeedPrecipitationEventsConditions
12:50 AM37.4 °F33.8 °F87 %29.74 inEast (80°)15.0 mphRainLight Rain
1:20 AM37.4 °F33.8 °F87 %29.74 in2.2 miEast (80°)15.0 mphRainLight Rain
1:50 AM37.4 °F33.8 °F87 %29.74 in1.6 miEast (80°)13.8 mphRainLight Rain
2:20 AM37.4 °F33.8 °F87 %29.74 in1.9 miEast (80°)15.0 mphRainLight Rain
2:50 AM37.4 °F33.8 °F87 %29.71 in1.6 miEast (80°)12.7 mphRainLight Rain
3:20 AM35.6 °F33.8 °F93 %29.71 in1.2 miEast (80°)13.8 mphRainLight Rain
3:50 AM35.6 °F33.8 °F93 %29.71 in1.2 miEast (80°)15.0 mphRainLight Rain
4:20 AM35.6 °F33.8 °F93 %29.71 in1.3 miEast (80°)15.0 mphRainLight Rain
4:50 AM35.6 °F33.8 °F93 %29.74 in1.3 miENE (70°)13.8 mphRainLight Rain
5:20 AM35.6 °F33.8 °F93 %29.74 in1.3 miENE (70°)12.7 mphRainLight Rain
5:50 AM35.6 °F32.0 °F87 %29.74 in1.4 miENE (70°)12.7 mphRainLight Rain
6:20 AM33.8 °F32.0 °F93 %29.74 in1.4 miENE (70°)12.7 mphRainLight Rain
6:50 AM33.8 °F32.0 °F93 %29.74 in1.2 miENE (70°)11.5 mphRain-SnowLight Rain
7:20 AM33.8 °F32.0 °F93 %29.77 in1.1 miENE (70°)12.7 mphRain-SnowLight Rain
7:50 AM33.8 °F32.0 °F93 %29.77 in0.6 miENE (60°)12.7 mphSnowLight Snow
8:20 AM33.8 °F32.0 °F93 %29.77 in0.7 miENE (70°)12.7 mphSnowLight Snow
8:50 AM33.8 °F32.0 °F93 %29.77 in0.9 miENE (70°)11.5 mphSnowLight Snow
9:20 AM33.8 °F32.0 °F93 %29.77 in0.7 miENE (70°)12.7 mphSnowLight Snow
9:50 AM33.8 °F32.0 °F93 %29.77 in0.7 miENE (70°)12.7 mphSnowLight Snow
10:20 AM33.8 °F32.0 °F93 %29.80 in1.7 miENE (70°)15.0 mphSnowLight Snow
10:50 AM33.8 °F32.0 °F93 %29.80 inENE (60°)17.3 mphSnowLight Snow
11:20 AM33.8 °F32.0 °F93 %29.80 inENE (60°)12.7 mphSnowLight Snow
11:50 AM33.8 °F32.0 °F93 %29.80 in2.5 miENE (70°)12.7 mphSnowLight Snow
12:20 PM33.8 °F32.0 °F93 %29.80 in1.2 miENE (60°)11.5 mphSnowLight Snow
12:50 PM33.8 °F32.0 °F93 %29.80 in0.7 miENE (60°)12.7 mphSnowLight Snow
1:20 PM33.8 °F32.0 °F93 %29.80 in1.1 miENE (60°)13.8 mphSnowLight Snow
1:50 PM35.6 °F32.0 °F87 %29.80 in2.2 miENE (60°)13.8 mphSnowLight Snow
2:20 PM35.6 °F32.0 °F87 %29.80 in3.1 miENE (60°)11.5 mphRain-SnowLight Rain
2:50 PM35.6 °F32.0 °F87 %29.80 in2.8 miENE (60°)12.7 mphHaze
3:20 PM35.6 °F32.0 °F87 %29.80 inENE (60°)16.1 mphHaze
3:50 PM35.6 °F32.0 °F87 %29.80 in2.5 miENE (70°)12.7 mphHaze
4:20 PM35.6 °F32.0 °F87 %29.80 in2.8 miENE (60°)13.8 mphHaze
4:50 PM35.6 °F32.0 °F87 %29.80 in2.8 miENE (60°)15.0 mphHaze
5:20 PM35.6 °F32.0 °F87 %29.80 in2.5 miENE (60°)13.8 mphHaze
5:50 PM35.6 °F32.0 °F87 %29.83 in2.5 miENE (60°)12.7 mphHaze
6:20 PM35.6 °F32.0 °F87 %29.83 in2.2 miENE (60°)12.7 mphHaze
6:50 PM35.6 °F32.0 °F87 %29.83 inENE (60°)12.7 mphHaze
7:20 PM35.6 °F32.0 °F87 %29.83 in2.2 miENE (60°)15.0 mphHaze
7:50 PM35.6 °F32.0 °F87 %29.83 inENE (60°)12.7 mphHaze
8:20 PM33.8 °F32.0 °F93 %29.83 in2.2 miENE (60°)15.0 mphHaze
8:50 PM33.8 °F32.0 °F93 %29.83 inENE (60°)13.8 mphHaze
9:20 PM33.8 °F32.0 °F93 %29.83 inENE (60°)13.8 mphHaze
9:50 PM33.8 °F32.0 °F93 %29.83 inENE (60°)12.7 mphHaze
10:20 PM33.8 °F32.0 °F93 %29.83 inENE (60°)12.7 mphHaze
10:50 PM33.8 °F32.0 °F93 %29.83 inENE (60°)13.8 mphHaze
11:20 PM33.8 °F32.0 °F93 %29.83 in1.8 miENE (60°)13.8 mphHaze
11:50 PM33.8 °F32.0 °F93 %29.83 inENE (60°)15.0 mphHaze
Hourly data recorded from EGKK, located miles away from London, England







STORIES FROM OUR PARTNERS